Grand Canyon, AZ

12:10 PM MST on February 21, 2018 (GMT -0700)
Grand Canyon National Park

Weather History for KGCN - February, 2013

Change the Weather History Date:

Friday, February 22, 2013

  Actual Average Record
Temperature  
Mean Temperature 16 °F -  
Max Temperature 35 °F 42 °F 64 °F (2002)
Min Temperature -4 °F 17 °F -4 °F (2013)
Degree Days  
Heating Degree Days 50    
Moisture  
Dew Point 5 °F    
Average Humidity 61    
Maximum Humidity 88    
Minimum Humidity 33    
Precipitation  
Precipitation 0.00 in - - ()
Sea Level Pressure  
Sea Level Pressure 30.14 in    
Wind  
Wind Speed 3 mph (NW)    
Max Wind Speed 12 mph    
Max Gust Speed 16 mph    
Visibility 10 miles    
Events      
Averages and records for this station are not official NWS values.
T = Trace of Precipitation, MM = Missing Value Source: NWS Daily Summary

Daily Weather History Graph

Daily Weather History Graph

Search for Another Location

Airport or City:

Trip Planner

Search our weather history database for the weather conditions in past years. The results will help you decide how hot, cold, wet, or windy it might be!

Date:

Astronomy

Feb. 22, 2013 Rise Set
Actual Time 7:07 AM MST 6:17 PM MST
Civil Twilight 6:41 AM MST 6:43 PM MST
Nautical Twilight 6:11 AM MST 7:13 PM MST
Astronomical Twilight 5:41 AM MST 7:42 PM MST
Moon 3:35 PM MST (2/22) 4:50 AM MST (2/22)
Length of Visible Light 12h 01m
Length of Day
11h 10m
Waxing Gibbous, 90% of the Moon is Illuminated
Feb 22
Waxing Gibbous
Feb 25
Full
Mar 4
Last Quarter
Mar 11
New
Mar 19
First Quarter

Hourly Weather History & Observations

Time (MST) Temp. Windchill Dew Point Humidity Pressure Visibility Wind Dir Wind Speed Gust Speed Precip Events Conditions
12:54 AM 7.0 °F 0.1 °F 1.0 °F 77% 30.04 in 10.0 mi ENE 3.5 mph - N/A   Clear
1:54 AM 1.9 °F -7.6 °F -2.9 °F 80% 30.06 in 10.0 mi ENE 4.6 mph - N/A   Clear
2:54 AM 1.0 °F - -5.1 °F 75% 30.08 in 10.0 mi Calm Calm - N/A   Clear
3:54 AM -0.9 °F - -7.1 °F 75% 30.08 in 10.0 mi Calm Calm - N/A   Clear
4:54 AM -0.9 °F -11.0 °F -6.0 °F 79% 30.10 in 10.0 mi NE 4.6 mph - N/A   Clear
5:54 AM -2.9 °F - -9.0 °F 75% 30.14 in 10.0 mi Calm Calm - N/A   Clear
6:54 AM -4.0 °F - -9.9 °F 76% 30.17 in 10.0 mi Calm Calm - N/A   Clear
7:54 AM -0.0 °F - -2.9 °F 88% 30.15 in 10.0 mi Calm Calm - N/A   Clear
8:54 AM 17.1 °F - 10.9 °F 77% 30.13 in 10.0 mi Calm Calm - N/A   Clear
9:54 AM 26.1 °F 20.5 °F 8.1 °F 47% 30.09 in 10.0 mi Variable 4.6 mph - N/A   Clear
10:54 AM 30.0 °F 22.4 °F 3.9 °F 33% 30.13 in 10.0 mi WNW 8.1 mph - N/A   Clear
12:54 PM 34.0 °F 28.8 °F 8.1 °F 34% 30.13 in 10.0 mi Variable 5.8 mph - N/A   Clear
1:54 PM 34.0 °F 27.2 °F 10.0 °F 37% 30.12 in 10.0 mi West 8.1 mph - N/A   Clear
2:54 PM 35.1 °F 30.1 °F 10.0 °F 35% 30.12 in 10.0 mi Variable 5.8 mph 16.1 mph N/A   Clear
3:54 PM 35.1 °F 26.9 °F 10.0 °F 35% 30.13 in 10.0 mi NNW 11.5 mph 16.1 mph N/A   Clear
4:54 PM 34.0 °F 26.0 °F 8.1 °F 34% 30.16 in 10.0 mi NNW 10.4 mph - N/A   Clear
5:54 PM 32.0 °F 25.6 °F 9.0 °F 38% 30.19 in 10.0 mi WNW 6.9 mph - N/A   Clear
6:54 PM 28.9 °F 25.2 °F 10.9 °F 47% 30.24 in 10.0 mi WSW 3.5 mph - N/A   Clear
7:54 PM 26.1 °F 21.9 °F 12.0 °F 55% 30.25 in 10.0 mi SSE 3.5 mph - N/A   Clear
8:54 PM 21.0 °F 13.4 °F 14.0 °F 74% 30.21 in 10.0 mi West 5.8 mph - N/A   Clear
9:54 PM 19.9 °F - 12.9 °F 74% 30.19 in 10.0 mi Calm Calm - N/A   Clear
10:54 PM 19.9 °F - 12.9 °F 74% 30.17 in 10.0 mi Calm Calm - N/A   Clear
11:54 PM 18.0 °F - 12.0 °F 78% 30.16 in 10.0 mi Calm Calm - N/A   Clear